• In Spain
  • List of Countries
  • For 7 days
  • Water Temperature
  • Satellite Maps
  • Weather Map
  • Weather Widgets
  • user-avatar
    Login

    Hourly Weather Uige

    Today, 19 October, Friday

    Time Temperature Precipitation Wind Pressure Humidity
    00:00 +20°C° 0 mm 0 mps 690 mmHg 92%
    01:00 +19°C° 0 mm 0 mps 690 mmHg 94%
    02:00 +19°C° 0 mm 0 mps 690 mmHg 95%
    03:00 +19°C° 0 mm 0 mps 690 mmHg 96%
    04:00 +19°C° 0 mm 0 mps 690 mmHg 97%
    05:00 +20°C° 0 mm 0 mps 690 mmHg 94%
    06:00 +23°C° 0 mm 1 mps 691 mmHg 91%
    07:00 +23°C° 0 mm 1 mps 691 mmHg 89%
    08:00 +26°C° 0.1 mm 1 mps 692 mmHg 78%
    09:00 +28°C° 0.1 mm 1 mps 692 mmHg 68%
    10:00 +31°C° 0.1 mm 1 mps 692 mmHg 58%
    11:00 +31°C° 0.8 mm 1 mps 692 mmHg 57%
    12:00 +32°C° 0.8 mm 1 mps 691 mmHg 56%
    13:00 +31°C° 0.8 mm 0 mps 690 mmHg 55%
    14:00 +29°C° 2.7 mm 0 mps 690 mmHg 64%
    15:00 +27°C° 2.7 mm 0 mps 689 mmHg 73%
    16:00 +25°C° 2.7 mm 0 mps 688 mmHg 82%
    17:00 +24°C° 0.4 mm 0 mps 689 mmHg 84%
    18:00 +23°C° 0.4 mm 0 mps 689 mmHg 87%
    19:00 +22°C° 0.4 mm 0 mps 689 mmHg 89%
    20:00 +22°C° 0 mm 0 mps 690 mmHg 90%
    21:00 +22°C° 0 mm 0 mps 690 mmHg 91%
    22:00 +21°C° 0 mm 0 mps 690 mmHg 92%
    23:00 +21°C° 0.1 mm 0 mps 690 mmHg 93%

    Tomorrow, 20 October, Saturday

    Time Temperature Precipitation Wind Pressure Humidity
    00:00 +23°C° 0.1 mm 1 mps 690 mmHg 94%
    01:00 +23°C° 0.1 mm 1 mps 690 mmHg 95%
    02:00 +22°C° 0 mm 1 mps 690 mmHg 96%
    03:00 +22°C° 0 mm 1 mps 690 mmHg 96%
    04:00 +22°C° 0 mm 1 mps 689 mmHg 97%
    05:00 +23°C° 0 mm 1 mps 690 mmHg 96%
    06:00 +23°C° 0 mm 1 mps 690 mmHg 94%
    07:00 +24°C° 0 mm 1 mps 691 mmHg 92%
    08:00 +25°C° 0.2 mm 1 mps 691 mmHg 85%
    09:00 +27°C° 0.2 mm 1 mps 692 mmHg 77%
    10:00 +29°C° 0.2 mm 1 mps 692 mmHg 69%
    11:00 +30°C° 0.9 mm 1 mps 692 mmHg 66%
    12:00 +31°C° 0.9 mm 1 mps 691 mmHg 63%
    13:00 +32°C° 0.9 mm 1 mps 690 mmHg 60%
    14:00 +31°C° 2.2 mm 1 mps 690 mmHg 65%
    15:00 +30°C° 2.2 mm 1 mps 689 mmHg 71%
    16:00 +28°C° 2.2 mm 1 mps 688 mmHg 77%
    17:00 +27°C° 0.9 mm 1 mps 689 mmHg 81%
    18:00 +26°C° 0.9 mm 1 mps 689 mmHg 85%
    19:00 +24°C° 0.9 mm 1 mps 690 mmHg 89%
    20:00 +24°C° 0.3 mm 1 mps 690 mmHg 90%
    21:00 +24°C° 0.3 mm 1 mps 690 mmHg 91%
    22:00 +24°C° 0.3 mm 1 mps 691 mmHg 92%
    23:00 +23°C° 0 mm 1 mps 690 mmHg 94%

    Day after tomorrow, 21 October, Sunday

    Time Temperature Precipitation Wind Pressure Humidity
    00:00 +23°C° 0 mm 1 mps 690 mmHg 95%
    01:00 +23°C° 0 mm 1 mps 690 mmHg 97%
    02:00 +23°C° 0 mm 1 mps 690 mmHg 97%
    03:00 +23°C° 0 mm 1 mps 689 mmHg 97%
    04:00 +23°C° 0 mm 1 mps 689 mmHg 96%
    05:00 +23°C° 0.4 mm 1 mps 690 mmHg 95%
    06:00 +23°C° 0.4 mm 1 mps 690 mmHg 94%
    07:00 +24°C° 0.4 mm 1 mps 691 mmHg 92%
    08:00 +26°C° 1 mm 1 mps 692 mmHg 83%
    09:00 +28°C° 1 mm 1 mps 692 mmHg 73%
    10:00 +31°C° 1 mm 1 mps 693 mmHg 64%
    11:00 +31°C° 0.8 mm 1 mps 692 mmHg 62%
    12:00 +31°C° 0.8 mm 1 mps 691 mmHg 61%
    13:00 +31°C° 0.8 mm 1 mps 690 mmHg 60%
    14:00 +31°C° 0.4 mm 1 mps 690 mmHg 59%
    15:00 +31°C° 0.4 mm 1 mps 689 mmHg 58%
    16:00 +31°C° 0.4 mm 1 mps 689 mmHg 57%
    17:00 +29°C° 0.1 mm 1 mps 689 mmHg 63%
    18:00 +27°C° 0.1 mm 1 mps 689 mmHg 68%
    19:00 +26°C° 0.1 mm 1 mps 689 mmHg 74%
    20:00 +23°C° 0.5 mm 0 mps 690 mmHg 79%
    21:00 +22°C° 0.5 mm 0 mps 690 mmHg 84%
    22:00 +22°C° 0.5 mm 0 mps 691 mmHg 89%
    23:00 +23°C° 1.1 mm 1 mps 690 mmHg 91%

    22 October, Monday

    Time Temperature Precipitation Wind Pressure Humidity
    00:00 +23°C° 1.1 mm 1 mps 690 mmHg 92%
    01:00 +23°C° 1.1 mm 1 mps 690 mmHg 93%
    02:00 +23°C° 0.4 mm 1 mps 689 mmHg 94%
    03:00 +23°C° 0.4 mm 1 mps 689 mmHg 95%
    04:00 +23°C° 0.4 mm 1 mps 689 mmHg 96%
    05:00 +23°C° 0 mm 1 mps 690 mmHg 96%
    06:00 +23°C° 0 mm 1 mps 690 mmHg 95%
    07:00 +24°C° 0 mm 1 mps 691 mmHg 94%
    08:00 +26°C° 0.7 mm 1 mps 691 mmHg 84%
    09:00 +28°C° 0.7 mm 1 mps 691 mmHg 73%
    10:00 +30°C° 0.7 mm 1 mps 692 mmHg 63%
    11:00 +31°C° 0.8 mm 1 mps 691 mmHg 60%
    12:00 +32°C° 0.8 mm 1 mps 690 mmHg 56%
    13:00 +33°C° 0.8 mm 1 mps 690 mmHg 53%
    14:00 +30°C° 0.9 mm 1 mps 689 mmHg 63%
    15:00 +28°C° 0.9 mm 1 mps 688 mmHg 73%
    16:00 +25°C° 0.9 mm 1 mps 688 mmHg 83%
    17:00 +25°C° 0.4 mm 1 mps 688 mmHg 85%
    18:00 +24°C° 0.4 mm 1 mps 689 mmHg 87%
    19:00 +23°C° 0.4 mm 1 mps 689 mmHg 89%
    20:00 +23°C° 0.1 mm 1 mps 690 mmHg 89%
    21:00 +23°C° 0.1 mm 1 mps 690 mmHg 89%
    22:00 +21°C° 0.1 mm 0 mps 690 mmHg 88%
    23:00 +20°C° 0.5 mm 0 mps 690 mmHg 90%

    23 October, Tuesday

    Time Temperature Precipitation Wind Pressure Humidity
    00:00 +20°C° 0.5 mm 0 mps 690 mmHg 91%
    01:00 +20°C° 0.5 mm 0 mps 690 mmHg 92%
    02:00 +22°C° 0.7 mm 1 mps 690 mmHg 93%
    03:00 +22°C° 0.7 mm 1 mps 690 mmHg 93%
    04:00 +22°C° 0.7 mm 1 mps 690 mmHg 94%
    05:00 +22°C° 1.4 mm 1 mps 691 mmHg 94%
    06:00 +22°C° 1.4 mm 1 mps 691 mmHg 93%
    07:00 +23°C° 1.4 mm 2 mps 692 mmHg 92%
    08:00 +24°C° 0.9 mm 2 mps 692 mmHg 89%
    09:00 +24°C° 0.9 mm 2 mps 693 mmHg 85%
    10:00 +25°C° 0.9 mm 3 mps 693 mmHg 82%
    11:00 +26°C° 0.5 mm 2 mps 692 mmHg 80%
    12:00 +26°C° 0.5 mm 2 mps 692 mmHg 78%
    13:00 +26°C° 0.5 mm 1 mps 691 mmHg 76%
    14:00 +26°C° 0.3 mm 1 mps 691 mmHg 74%
    15:00 +26°C° 0.3 mm 1 mps 691 mmHg 73%
    16:00 +25°C° 0.3 mm 0 mps 690 mmHg 71%
    17:00 +24°C° 0 mm 0 mps 691 mmHg 75%
    18:00 +23°C° 0 mm 0 mps 691 mmHg 79%
    19:00 +21°C° 0 mm 0 mps 691 mmHg 82%
    20:00 +21°C° 0 mm 0 mps 691 mmHg 84%
    21:00 +21°C° 0 mm 0 mps 691 mmHg 85%
    22:00 +21°C° 0 mm 0 mps 691 mmHg 86%
    23:00 +20°C° 0.1 mm 0 mps 691 mmHg 86%

    24 October, Wednesday

    Time Temperature Precipitation Wind Pressure Humidity
    00:00 +22°C° 0.1 mm 1 mps 691 mmHg 87%
    01:00 +22°C° 0.1 mm 1 mps 691 mmHg 87%
    02:00 +22°C° 0.4 mm 1 mps 691 mmHg 89%
    03:00 +21°C° 0.4 mm 1 mps 691 mmHg 90%
    04:00 +21°C° 0.4 mm 1 mps 691 mmHg 92%
    05:00 +21°C° 0.7 mm 1 mps 691 mmHg 92%
    06:00 +21°C° 0.7 mm 1 mps 692 mmHg 92%
    07:00 +22°C° 0.7 mm 1 mps 692 mmHg 93%
    08:00 +23°C° 0.6 mm 1 mps 692 mmHg 90%
    09:00 +23°C° 0.6 mm 1 mps 692 mmHg 88%
    10:00 +24°C° 0.6 mm 1 mps 692 mmHg 86%
    11:00 +26°C° 0.4 mm 1 mps 692 mmHg 80%
    12:00 +27°C° 0.4 mm 1 mps 691 mmHg 75%
    13:00 +28°C° 0.4 mm 1 mps 690 mmHg 69%
    14:00 +27°C° 0.4 mm 1 mps 690 mmHg 71%
    15:00 +27°C° 0.4 mm 1 mps 690 mmHg 73%
    16:00 +27°C° 0.4 mm 1 mps 689 mmHg 74%
    17:00 +25°C° 0.1 mm 1 mps 690 mmHg 77%
    18:00 +24°C° 0.1 mm 1 mps 690 mmHg 80%
    19:00 +23°C° 0.1 mm 1 mps 690 mmHg 83%
    20:00 +23°C° 0.3 mm 1 mps 690 mmHg 84%
    21:00 +22°C° 0.3 mm 1 mps 691 mmHg 86%
    22:00 +22°C° 0.3 mm 1 mps 691 mmHg 87%
    23:00 +22°C° 0 mm 1 mps 690 mmHg 88%
    Show more